Regional Weather Roundup
Issued by NWS Albany, NY

Home | Current Version | Previous Version | Text Only | Print | Product List | Glossary On
Versions: 1 2 3 4 5 6 7 8 9 10 11 12 13 14 15 16 17 18 19 20 21 22 23 24 25 26
000
ASUS41 KALY 261410
RWRALY

NEW YORK STATE HOURLY WEATHER ROUNDUP
NATIONAL WEATHER SERVICE ALBANY NY
1000 AM EDT THU MAY 26 2016

NOTE: "FAIR" INDICATES FEW OR NO CLOUDS BELOW 12,000 FEET WITH NO
SIGNIFICANT WEATHER AND/OR NO OBSTRUCTIONS TO VISIBILITY.

NYZ032-033-038>043-046>054-057>066-NYZ062>081-082-084-261500-
EAST


CITY           SKY/WX    TMP DP  RH WIND       PRES   REMARKS
ALBANY         CLOUDY    71  57  61 N3        30.12F
GLENS FALLS    MOSUNNY   71  53  52 VRB5      30.12F
POUGHKEEPSIE   SUNNY     76  58  53 CALM      30.09F
NEWBURGH       SUNNY     77  61  57 CALM      30.11F
MONTGOMERY     MOSUNNY   77  61  57 CALM      30.09F
WHITE PLAINS   SUNNY     79  54  41 SE3       30.11S
ISLIP          PTSUNNY   80  59  48 S5        30.09F
NEW YORK CITY  PTSUNNY   80  59  48 N3        30.09F
CENTRAL PARK   SUNNY     78  51  38 W3        30.13F
$$

NYZ005>009-017-018-044>046-055-056-261500-
CENTRAL


CITY           SKY/WX    TMP DP  RH WIND       PRES   REMARKS
FULTON         MOSUNNY   77  59  53 SE5       30.07F
SYRACUSE       CLOUDY    75  60  59 E5        30.06F
ROME           CLOUDY    73  60  63 SE3       30.09F
ELMIRA         MOSUNNY   72  56  57 CALM      30.09F
BINGHAMTON     PTSUNNY   72  54  53 S6        30.13F
MONTICELLO     CLOUDY    73  59  60 SW3       30.16F
$$

NYZ026>034-041>043-087-261500-
NORTH


CITY           SKY/WX    TMP DP  RH WIND       PRES   REMARKS
WATERTOWN      PTSUNNY   73  56  54 S6        30.06F
FORT DRUM      NOT AVBL
MASSENA        SUNNY     68  50  52 NE13      30.12F
SARANAC LAKE   SUNNY     69  49  48 SW6       30.12F
PLATTSBURGH    MOSUNNY   66  45  46 NE8       30.15S
$$

NYZ001>004-010>016-019>021-085-261500-
WEST


CITY           SKY/WX    TMP DP  RH WIND       PRES   REMARKS
NIAGARA FALLS  CLOUDY    76  58  53 S8        30.03S
BUFFALO        CLOUDY    71  62  73 SE7       30.04F
DUNKIRK        PTSUNNY   75  59  57 S13       30.04S
JAMESTOWN      SUNNY     72  57  60 S12       30.09F
WELLSVILLE     PTSUNNY   72  56  57 VRB6      30.14F
ROCHESTER      CLOUDY    76  58  53 SW7       30.05F
PENN YAN       MOSUNNY   75  54  47 SW7       30.08F
$$

             KEY
       WCI = WIND CHILL INDEX
       VSB = VISIBILITY
       HX  = HEAT INDEX
$$




USA.gov is the U.S. government's official web portal to all federal, state and local government web resources and services.